Location: Mentone
(34.5413°N, 85.5351°W)
Time: 18:25:43
(UTC-05:00)

Tiros 1 despin weight - All Passes

Search period start: 01 September 2014 00:00
Search period end: 11 September 2014 00:00
Orbit: 601 x 653 km, 48.2° (Epoch: 01 September)

Date Brightness Start Highest point End Pass type
(mag) Time Alt. Az. Time Alt. Az. Time Alt. Az.
01 Sep - 02:32:10 10° SE 02:32:52 10° SE 02:33:34 10° ESE visible
01 Sep - 04:09:22 10° SW 04:13:58 75° SE 04:18:39 10° NE visible
01 Sep - 05:52:09 10° W 05:56:06 26° NNW 06:00:06 10° NE visible
01 Sep - 07:36:23 10° NW 07:39:09 15° N 07:41:56 10° NE daylight
01 Sep - 09:18:37 10° NNW 09:22:19 22° NNE 09:26:00 10° ENE daylight
01 Sep - 10:59:56 10° NW 11:04:42 75° NE 11:09:24 10° ESE daylight
01 Sep - 12:42:56 10° W 12:46:02 17° SW 12:49:07 10° S daylight
02 Sep - 02:48:14 10° S 02:51:56 24° SE 02:55:41 10° ENE visible
02 Sep - 04:28:54 10° WSW 04:33:26 55° NNW 04:38:04 10° NE visible
02 Sep - 06:12:40 10° WNW 06:16:01 19° NNW 06:19:23 10° NNE daylight
02 Sep - 07:56:20 10° NNW 07:59:14 16° N 08:02:08 10° NE daylight
02 Sep - 09:37:52 10° NW 09:42:09 33° NNE 09:46:25 10° E daylight
02 Sep - 11:19:28 10° WNW 11:24:06 53° SW 11:28:40 10° SSE daylight
03 Sep - 03:06:42 10° SW 03:11:09 54° SE 03:15:43 10° ENE visible
03 Sep - 04:48:58 10° W 04:53:07 31° NNW 04:57:19 10° NE visible
03 Sep - 06:33:11 10° NW 06:36:02 16° N 06:38:54 10° NNE daylight
03 Sep - 08:15:50 10° NNW 08:19:15 19° NNE 08:22:41 10° ENE daylight
03 Sep - 09:57:07 10° NW 10:01:48 57° NNE 10:06:27 10° ESE daylight
03 Sep - 11:39:31 10° WNW 11:43:19 24° SW 11:47:06 10° S daylight
04 Sep - 01:46:14 10° S 01:49:14 17° SE 01:52:16 10° E visible
04 Sep - 03:25:58 10° WSW 03:30:33 73° NW 03:35:14 10° NE visible
04 Sep - 05:09:23 10° WNW 05:12:57 21° NNW 05:16:33 10° NNE visible
04 Sep - 06:53:21 10° NNW 06:56:07 15° N 06:58:54 10° NE daylight
04 Sep - 08:35:06 10° NW 08:39:09 27° NNE 08:43:11 10° E daylight
04 Sep - 10:16:32 10° NW 10:21:16 73° SW 10:25:58 10° SE daylight
04 Sep - 12:01:41 10° WSW 12:02:23 10° SW 12:03:06 10° SW daylight
05 Sep - 02:04:09 10° SSW 02:08:23 38° SE 02:12:41 10° ENE visible
05 Sep - 03:45:50 10° W 03:50:08 38° NNW 03:54:32 10° NE visible
05 Sep - 05:29:57 10° NW 05:32:56 17° N 05:35:57 10° NNE visible
05 Sep - 07:13:00 10° NNW 07:16:10 17° NNE 07:19:20 10° NE daylight
05 Sep - 08:54:20 10° NW 08:58:52 44° NNE 09:03:24 10° ESE daylight
05 Sep - 10:36:18 10° WNW 10:40:34 33° SW 10:44:47 10° SSE daylight
06 Sep - 00:44:49 10° SSE 00:46:33 12° SE 00:48:17 10° ESE night (unlit)
06 Sep - 02:23:08 10° SW 02:27:42 85° SE 02:32:22 10° NE visible
06 Sep - 04:06:07 10° WNW 04:09:55 24° NNW 04:13:45 10° NE visible
06 Sep - 05:50:17 10° NW 05:53:00 15° N 05:55:43 10° NE visible
06 Sep - 07:32:20 10° NNW 07:36:07 23° NNE 07:39:54 10° ENE daylight
06 Sep - 09:13:39 10° NW 09:18:25 84° NE 09:23:09 10° SE daylight
06 Sep - 10:57:00 10° W 10:59:42 15° SW 11:02:23 10° SSW daylight
07 Sep - 01:01:47 10° S 01:05:38 28° SE 01:09:32 10° ENE night (unlit)
07 Sep - 02:42:46 10° WSW 02:47:12 49° NNW 02:51:43 10° NE visible
07 Sep - 04:26:40 10° NW 04:29:50 18° NNW 04:33:02 10° NNE visible
07 Sep - 06:10:08 10° NNW 06:13:03 16° N 06:16:00 10° NE daylight
07 Sep - 07:51:33 10° NW 07:55:54 35° NNE 08:00:16 10° E daylight
07 Sep - 09:33:14 10° WNW 09:37:46 46° SW 09:42:17 10° SSE daylight
08 Sep - 01:20:24 10° SW 01:24:52 62° SE 01:29:26 10° ENE night (unlit)
08 Sep - 03:02:54 10° W 03:06:53 29° NNW 03:10:57 10° NE visible
08 Sep - 04:47:08 10° NW 04:49:52 15° N 04:52:37 10° NNE visible
08 Sep - 06:29:33 10° NNW 06:33:03 20° NNE 06:36:33 10° ENE daylight
08 Sep - 08:10:49 10° NW 08:15:31 64° NE 08:20:13 10° ESE daylight
08 Sep - 09:53:24 10° W 09:56:58 21° SW 10:00:30 10° S daylight
08 Sep - 23:59:38 10° S 00:02:54 20° SE 00:06:12 10° E night (unlit)
09 Sep - 01:39:47 10° WSW 01:44:17 64° NW 01:48:53 10° NE visible
09 Sep - 03:23:22 10° WNW 03:26:45 20° NNW 03:30:11 10° NNE visible
09 Sep - 05:07:11 10° NNW 05:09:56 15° N 05:12:42 10° NE visible
09 Sep - 06:48:47 10° NW 06:52:54 29° NNE 06:57:02 10° E daylight
09 Sep - 08:30:16 10° WNW 08:34:56 64° SW 08:39:37 10° SE daylight
10 Sep - 00:17:48 10° SSW 00:22:04 44° SE 00:26:25 10° ENE night (unlit)
10 Sep - 01:59:43 10° W 02:03:54 35° NNW 02:08:09 10° NE visible
10 Sep - 03:43:54 10° NW 03:46:44 16° N 03:49:36 10° NNE visible
10 Sep - 05:26:44 10° NNW 05:29:57 18° NNE 05:33:11 10° ENE visible
10 Sep - 07:08:00 10° NW 07:12:34 49° NNE 07:17:10 10° ESE daylight
10 Sep - 08:50:07 10° WNW 08:54:12 29° SW 08:58:16 10° SSE daylight
10 Sep - 22:57:54 10° SSE 23:00:11 14° SE 23:02:30 10° E night (unlit)
